Preview of NWS' New Version of Forecast
This preview is not operational and should not be used for support decisions.

Regional Weather Roundup (RWR)

Issued by National Weather Service (NWS)

                            
000
ASUS43 KMKX 212221
RWRWI 

WISCONSIN REGIONAL WEATHER ROUNDUP
NATIONAL WEATHER SERVICE MILWAUKEE/SULLIVAN WI
500 PM CDT SAT SEP 21 2019

NOTE: "FAIR" INDICATES FEW OR NO CLOUDS BELOW 12,000 FEET WITH NO
SIGNIFICANT WEATHER AND/OR OBSTRUCTIONS TO VISIBILITY.

WIZ001-002-006>008-014>016-023>028-212300-
NORTHWEST WISCONSIN
  
CITY           SKY/WX    TMP DP  RH WIND       PRES   REMARKS
SUPERIOR ARPT  CLOUDY    74  70  86 SW6       29.68R                  
ASHLAND        PTSUNNY   76  69  79 S13G24    29.72S                  
HAYWARD        CLOUDY    74  68  81 S14G25    29.74F                  
SIREN            N/A    N/A N/A N/A S9        29.73                   
CUMBERLAND     CLOUDY    73  68  83 S15G21    29.75S                  
RICE LAKE      PTSUNNY   77  61  57 S13       29.76S                  
CHETEK         FAIR      77  71  81 S10G18    29.76F                  
LADYSMITH      CLOUDY    74  72  93 S12G17    29.80F                  
EAU CLAIRE     CLOUDY    79  69  71 S15       29.77F HX  81           
MENOMONIE      CLOUDY    74  67  79 S12G18    29.78S                  
NEW RICHMOND   PTSUNNY   79  68  69 S13G20    29.73F HX  81           
OSCEOLA        PTSUNNY   78  72  82 S12       29.74F                  
$$
 
WIZ003>005-009-010-017-018-212300-
NORTH CENTRAL WISCONSIN
  
CITY           SKY/WX    TMP DP  RH WIND       PRES   REMARKS
MANITOWISH WTR RAIN      69  69 100 S8        29.81F                  
ARBOR VITAE    CLOUDY    72  68  87 S10       29.83S                  
WOODRUFF       CLOUDY    72  68  87 S10       29.83S                  
RHINELANDER    CLOUDY    72  67  84 S10G21    29.86F                  
EAGLE RIVER    CLOUDY    71  69  95 S5        29.84S                  
LAND O LAKES   CLOUDY    70  69  97 S5        29.85                   
PHILLIPS       DRIZZLE   70  70 100 S10G18    29.81F                  
TOMAHAWK       DRIZZLE   69  67  93 S3        29.85F                  
MEDFORD        HVY RAIN  69  68  96 S14G21    29.85F                  
MERRILL        DRIZZLE   71  71 100 S7        29.86F                  
$$
 
WIZ029-030-035-036-043>047-212300-
CENTRAL WISCONSIN
  
CITY           SKY/WX    TMP DP  RH WIND       PRES   REMARKS
WAUSAU         LGT RAIN  71  70  96 S13G21    29.86S FOG              
MOSINEE        DRIZZLE   72  66  83 S14       29.89S                  
MARSHFIELD     CLOUDY    71  69  93 S9        29.87R                  
STEVENS POINT  DRIZZLE   71  70  96 SW16G23   29.89S                  
WAUPACA        CLOUDY    76  71  85 S13       29.90S                  
WAUTOMA        CLOUDY    74  69  85 S10       29.90                   
WISC RAPIDS    CLOUDY    73  69  87 S14G21    29.89R                  
CAMP DOUGLAS   FAIR      74  71  88 S9        29.88F                  
$$
 
WIZ011>013-019>022-031-037>040-048>050-212300-
NORTHEAST WISCONSIN
  
CITY           SKY/WX    TMP DP  RH WIND       PRES   REMARKS
ANTIGO         DRIZZLE   69  69 100 S12       29.90R                  
SHAWANO        CLOUDY    75  71  87 S6        29.88S                  
OCONTO         CLOUDY    73  69  87 SW9       29.89R                  
STURGEON BAY   CLOUDY    69  67  93 S9G17     29.91F                  
GREEN BAY      CLOUDY    74  69  85 S13G24    29.90F                  
MANITOWOC      LGT RAIN  74  69  85 S9        29.94                   
APPLETON       CLOUDY    72  70  94 S15       29.90F                  
CLINTONVILLE   CLOUDY    74  68  81 S9        29.88F                  
OSHKOSH        PTSUNNY   74  69  85 S16G26    29.91F                  
$$
 
WIZ032>034-041-042-053>061-212300-
SOUTHWEST WISCONSIN
  
CITY           SKY/WX    TMP DP  RH WIND       PRES   REMARKS
LA CROSSE      CLOUDY    75  70  83 S14       29.84F                  
SPARTA         CLOUDY    70  67  90 S12G17    29.87F                  
VIROQUA        CLOUDY    72  72 100 S10       29.90S                  
BOSCOBEL       CLOUDY    77  70  79 S9G20     29.90F                  
PRAIRIE DU CHI CLOUDY    75  69  80 S10G16    29.89S                  
PLATTEVILLE    CLOUDY    73  73 100 S9        29.95S                  
$$

WIZ056-057-062-063-064-067-068-212300-
SOUTH CENTRAL WISCONSIN
  
CITY           SKY/WX    TMP DP  RH WIND       PRES   REMARKS
REEDSBURG      CLOUDY    73  72  96 S12       29.91F                  
BARABOO/DELLS  CLOUDY    71  68  89 SW12G17   29.92S                  
LONE ROCK      CLOUDY    74  70  87 S8        29.92S                  
MINERAL POINT  DRIZZLE   73  73 100 S10       29.95R                  
MADISON        CLOUDY    73  70  90 S10       29.94F                  
MIDDLETON      CLOUDY    74  69  85 S8        29.95F                  
WATERTOWN      LGT RAIN  71  71 100 S10       29.96F                  
MONROE         CLOUDY    72  71  96 S12       29.97S                  
JANESVILLE     LGT RAIN  73  73 100 S9        29.97F                  
$$
 
WIZ051-052-058>065-066-070>072-212300-
SOUTHEAST WISCONSIN
  
CITY           SKY/WX    TMP DP  RH WIND       PRES   REMARKS
MILWAUKEE      LGT RAIN  74  70  87 S12       29.98S FOG              
WAUKESHA       LGT RAIN  70  68  94 S7G16     29.99F                  
MILWAUKEE/TIMM LGT RAIN  73  66  78 S14G21    29.98F                  
RACINE         LGT RAIN  73  69  87 S13       30.01S                  
KENOSHA        PTSUNNY   74  72  93 S12       30.00F                  
FOND DU LAC    CLOUDY    74  69  85 S10G20    29.94S                  
SHEBOYGAN      LGT RAIN  74  69  85 S16       29.94F                  
WEST BEND      LGT RAIN  72  70  94 S9G16     29.96F                  
JUNEAU         LGT RAIN  71  70  98 S12       29.96F                  
$$

LSZ147-162-212300-
LAKE SUPERIOR
  
STATION/POSITION TIME  TEMP    WIND        PRES    WAVE
                       AIR SEA DIR/SP/G            HT/PER
                 (UTC) (F)     (DEG/KT/KT) (MB)    (FT/S)
W MID LAKE BUOY  2150   61 55  260/  8/ 10 1005.9R   2/ 3
DEVILS ISLAND    2200   72     170/  2/  4 1005.2F
SAXON HARBOR     2140   78     200/  6/ 11 1006.1F
$$
 
LMZ867-665-643>646-212300-
LAKE MICHIGAN
  
STATION/POSITION TIME  TEMP    WIND        PRES    WAVE
                       AIR SEA DIR/SP/G            HT/PER
                 (UTC) (F)     (DEG/KT/KT) (MB)    (FT/S)
CHAMBERS ISLAND  2140   70     120/  6/ 15   N/A
N MID LAKE BUOY  2200   67 63  190/ 21/ 25 1013.1
NORTHPORT PIER   2140   68     140/  8/ 18 1012.2F
KEWAUNEE LAKESHO 2136   64     180/ 12/ 14 1012.9F
SHEBOYGAN LAKESH 2200   65     180/ 20/ 21 1014.0F
PORT WASHINGTON  2140   68     190/  6/  9 1015.6F
MILWAUKEE LAKESH 1940   72     200/ 10/ 13   N/A
S MID LAKE BUOY  2200   71 69  190/ 21/ 25 1015.8
KENOSHA   LAKESH 2200   73     200/ 10/ 15 1015.6
$$

TC  - TEMPERATURE IN CELSIUS
VSB - VISIBILITY IN STATUTE MILES
WCI - WIND CHILL INDEX
HX  - HEAT INDEX